Year,Month,Day,Hour,Minute,Value (Times are PST for temperature in C)
2009,04,18,00,00,5.60
2009,04,18,00,01,5.60
2009,04,18,00,02,5.70
2009,04,18,00,03,5.70
2009,04,18,00,04,5.70
2009,04,18,00,05,5.70
2009,04,18,00,06,5.80
2009,04,18,00,07,5.90
2009,04,18,00,08,5.90
2009,04,18,00,09,6.00
2009,04,18,00,10,6.10
2009,04,18,00,11,6.10
2009,04,18,00,12,6.20
2009,04,18,00,13,6.20
2009,04,18,00,14,6.20
2009,04,18,00,15,6.20
2009,04,18,00,16,6.20
2009,04,18,00,17,6.20
2009,04,18,00,18,6.30
2009,04,18,00,19,6.30
2009,04,18,00,20,6.30
2009,04,18,00,21,6.30
2009,04,18,00,22,6.20
2009,04,18,00,23,6.20
2009,04,18,00,24,6.30
2009,04,18,00,25,6.30
2009,04,18,00,26,6.40
2009,04,18,00,27,6.50
2009,04,18,00,28,6.60
2009,04,18,00,29,6.60
2009,04,18,00,30,6.70
2009,04,18,00,31,6.80
2009,04,18,00,32,6.80
2009,04,18,00,33,6.90
2009,04,18,00,34,7.00
2009,04,18,00,35,7.00
2009,04,18,00,36,7.00
2009,04,18,00,37,7.00
2009,04,18,00,38,7.00
2009,04,18,00,39,6.90
2009,04,18,00,40,6.80
2009,04,18,00,41,6.80
2009,04,18,00,42,6.80
2009,04,18,00,43,6.80
2009,04,18,00,44,6.80
2009,04,18,00,45,6.80
2009,04,18,00,46,6.80
2009,04,18,00,47,6.80
2009,04,18,00,48,6.80
2009,04,18,00,49,6.80
2009,04,18,00,50,6.70
2009,04,18,00,51,6.70
2009,04,18,00,52,6.70
2009,04,18,00,53,6.70
2009,04,18,00,54,6.60
2009,04,18,00,55,6.60
2009,04,18,00,56,6.60
2009,04,18,00,57,6.60
2009,04,18,00,58,6.50
2009,04,18,00,59,6.40
2009,04,18,01,00,6.40
2009,04,18,01,01,6.30
2009,04,18,01,02,6.20
2009,04,18,01,03,6.10
2009,04,18,01,04,5.90
2009,04,18,01,05,5.80
2009,04,18,01,06,5.70
2009,04,18,01,07,5.70
2009,04,18,01,08,5.60
2009,04,18,01,09,5.60
2009,04,18,01,10,5.50
2009,04,18,01,11,5.50
2009,04,18,01,12,5.50
2009,04,18,01,13,5.40
2009,04,18,01,14,5.40
2009,04,18,01,15,5.40
2009,04,18,01,16,5.30
2009,04,18,01,17,5.30
2009,04,18,01,18,5.30
2009,04,18,01,19,5.30
2009,04,18,01,20,5.20
2009,04,18,01,21,5.20
2009,04,18,01,22,5.20
2009,04,18,01,23,5.10
2009,04,18,01,24,5.10
2009,04,18,01,25,5.10
2009,04,18,01,26,5.10
2009,04,18,01,27,5.10
2009,04,18,01,28,5.10
2009,04,18,01,29,5.10
2009,04,18,01,30,5.10
2009,04,18,01,31,5.20
2009,04,18,01,32,5.20
2009,04,18,01,33,5.20
2009,04,18,01,34,5.20
2009,04,18,01,35,5.20
2009,04,18,01,36,5.20
2009,04,18,01,37,5.20
2009,04,18,01,38,5.20
2009,04,18,01,39,5.20
2009,04,18,01,40,5.20
2009,04,18,01,41,5.20
2009,04,18,01,42,5.20
2009,04,18,01,43,5.20
2009,04,18,01,44,5.20
2009,04,18,01,45,5.20
2009,04,18,01,46,5.30
2009,04,18,01,47,5.30
2009,04,18,01,48,5.30
2009,04,18,01,49,5.30
2009,04,18,01,50,5.30
2009,04,18,01,51,5.40
2009,04,18,01,52,5.40
2009,04,18,01,53,5.50
2009,04,18,01,54,5.60
2009,04,18,01,55,5.60
2009,04,18,01,56,5.70
2009,04,18,01,57,5.70
2009,04,18,01,58,5.70
2009,04,18,01,59,5.70
2009,04,18,02,00,5.70
2009,04,18,02,01,5.70
2009,04,18,02,02,5.70
2009,04,18,02,03,5.70
2009,04,18,02,04,5.70
2009,04,18,02,05,5.70
2009,04,18,02,06,5.60
2009,04,18,02,07,5.50
2009,04,18,02,08,5.50
2009,04,18,02,09,5.40
2009,04,18,02,10,5.30
2009,04,18,02,11,5.30
2009,04,18,02,12,5.30
2009,04,18,02,13,5.30
2009,04,18,02,14,5.20
2009,04,18,02,15,5.20
2009,04,18,02,16,5.10
2009,04,18,02,17,4.90
2009,04,18,02,18,4.70
2009,04,18,02,19,4.60
2009,04,18,02,20,4.60
2009,04,18,02,21,4.60
2009,04,18,02,22,4.60
2009,04,18,02,23,4.60
2009,04,18,02,24,4.60
2009,04,18,02,25,4.60
2009,04,18,02,26,4.60
2009,04,18,02,27,4.70
2009,04,18,02,28,4.80
2009,04,18,02,29,4.80
2009,04,18,02,30,4.90
2009,04,18,02,31,4.90
2009,04,18,02,32,4.90
2009,04,18,02,33,4.90
2009,04,18,02,34,4.90
2009,04,18,02,35,5.00
2009,04,18,02,36,5.10
2009,04,18,02,37,5.10
2009,04,18,02,38,5.10
2009,04,18,02,39,5.10
2009,04,18,02,40,5.10
2009,04,18,02,41,5.10
2009,04,18,02,42,5.10
2009,04,18,02,43,5.10
2009,04,18,02,44,5.10
2009,04,18,02,45,5.20
2009,04,18,02,46,5.10
2009,04,18,02,47,5.10
2009,04,18,02,48,5.10
2009,04,18,02,49,5.10
2009,04,18,02,50,5.10
2009,04,18,02,51,5.10
2009,04,18,02,52,5.10
2009,04,18,02,53,5.00
2009,04,18,02,54,4.90
2009,04,18,02,55,4.80
2009,04,18,02,56,4.70
2009,04,18,02,57,4.60
2009,04,18,02,58,4.50
2009,04,18,02,59,4.30
2009,04,18,03,00,4.20
2009,04,18,03,01,4.10
2009,04,18,03,02,4.00
2009,04,18,03,03,4.00
2009,04,18,03,04,4.00
2009,04,18,03,05,4.10
2009,04,18,03,06,4.20
2009,04,18,03,07,4.20
2009,04,18,03,08,4.20
2009,04,18,03,09,4.20
2009,04,18,03,10,4.20
2009,04,18,03,11,4.30
2009,04,18,03,12,4.30
2009,04,18,03,13,4.20
2009,04,18,03,14,4.20
2009,04,18,03,15,4.20
2009,04,18,03,16,4.10
2009,04,18,03,17,4.10
2009,04,18,03,18,4.00
2009,04,18,03,19,4.00
2009,04,18,03,20,3.90
2009,04,18,03,21,3.90
2009,04,18,03,22,3.90
2009,04,18,03,23,3.90
2009,04,18,03,24,3.90
2009,04,18,03,25,3.90
2009,04,18,03,26,3.90
2009,04,18,03,27,3.90
2009,04,18,03,28,3.90
2009,04,18,03,29,3.80
2009,04,18,03,30,3.80
2009,04,18,03,31,3.80
2009,04,18,03,32,3.80
2009,04,18,03,33,3.80
2009,04,18,03,34,3.80
2009,04,18,03,35,3.80
2009,04,18,03,36,3.80
2009,04,18,03,37,3.70
2009,04,18,03,38,3.70
2009,04,18,03,39,3.70
2009,04,18,03,40,3.70
2009,04,18,03,41,3.70
2009,04,18,03,42,3.60
2009,04,18,03,43,3.60
2009,04,18,03,44,3.50
2009,04,18,03,45,3.40
2009,04,18,03,46,3.30
2009,04,18,03,47,3.30
2009,04,18,03,48,3.20
2009,04,18,03,49,3.20
2009,04,18,03,50,3.20
2009,04,18,03,51,3.10
2009,04,18,03,52,3.10
2009,04,18,03,53,3.10
2009,04,18,03,54,3.10
2009,04,18,03,55,3.10
2009,04,18,03,56,3.20
2009,04,18,03,57,3.20
2009,04,18,03,58,3.20
2009,04,18,03,59,3.20
2009,04,18,04,00,3.20
2009,04,18,04,01,3.20
2009,04,18,04,02,3.20
2009,04,18,04,03,3.20
2009,04,18,04,04,3.20
2009,04,18,04,05,3.10
2009,04,18,04,06,3.10
2009,04,18,04,07,3.00
2009,04,18,04,08,2.90
2009,04,18,04,09,2.90
2009,04,18,04,10,2.90
2009,04,18,04,11,2.90
2009,04,18,04,12,2.90
2009,04,18,04,13,3.00
2009,04,18,04,14,3.10
2009,04,18,04,15,3.10
2009,04,18,04,16,3.10
2009,04,18,04,17,3.10
2009,04,18,04,18,3.20
2009,04,18,04,19,3.20
2009,04,18,04,20,3.20
2009,04,18,04,21,3.20
2009,04,18,04,22,3.20
2009,04,18,04,23,3.30
2009,04,18,04,24,3.30
2009,04,18,04,25,3.20
2009,04,18,04,26,3.20
2009,04,18,04,27,3.20
2009,04,18,04,28,3.10
2009,04,18,04,29,3.10
2009,04,18,04,30,3.10
2009,04,18,04,31,3.10
2009,04,18,04,32,3.10
2009,04,18,04,33,3.10
2009,04,18,04,34,3.10
2009,04,18,04,35,3.10
2009,04,18,04,36,3.10
2009,04,18,04,37,3.10
2009,04,18,04,38,2.90
2009,04,18,04,39,2.90
2009,04,18,04,40,2.80
2009,04,18,04,41,2.70
2009,04,18,04,42,2.70
2009,04,18,04,43,2.70
2009,04,18,04,44,2.70
2009,04,18,04,45,2.70
2009,04,18,04,46,2.80
2009,04,18,04,47,2.80
2009,04,18,04,48,2.80
2009,04,18,04,49,2.80
2009,04,18,04,50,2.70
2009,04,18,04,51,2.70
2009,04,18,04,52,2.70
2009,04,18,04,53,2.70
2009,04,18,04,54,2.70
2009,04,18,04,55,2.80
2009,04,18,04,56,2.80
2009,04,18,04,57,2.70
2009,04,18,04,58,2.70
2009,04,18,04,59,2.70
2009,04,18,05,00,2.70
2009,04,18,05,01,2.70
2009,04,18,05,02,2.80
2009,04,18,05,03,2.80
2009,04,18,05,04,2.80
2009,04,18,05,05,2.80
2009,04,18,05,06,2.70
2009,04,18,05,07,2.70
2009,04,18,05,08,2.70
2009,04,18,05,09,2.60
2009,04,18,05,10,2.60
2009,04,18,05,11,2.50
2009,04,18,05,12,2.50
2009,04,18,05,13,2.50
2009,04,18,05,14,2.50
2009,04,18,05,15,2.50
2009,04,18,05,16,2.60
2009,04,18,05,17,2.70
2009,04,18,05,18,2.70
2009,04,18,05,19,2.80
2009,04,18,05,20,2.80
2009,04,18,05,21,2.80
2009,04,18,05,22,2.80
2009,04,18,05,23,2.70
2009,04,18,05,24,2.70
2009,04,18,05,25,2.70
2009,04,18,05,26,2.70
2009,04,18,05,27,2.60
2009,04,18,05,28,2.60
2009,04,18,05,29,2.60
2009,04,18,05,30,2.50
2009,04,18,05,31,2.50
2009,04,18,05,32,2.50
2009,04,18,05,33,2.60
2009,04,18,05,34,2.70
2009,04,18,05,35,2.70
2009,04,18,05,36,2.70
2009,04,18,05,37,2.70
2009,04,18,05,38,2.70
2009,04,18,05,39,2.70
2009,04,18,05,40,2.70
2009,04,18,05,41,2.70
2009,04,18,05,42,2.70
2009,04,18,05,43,2.70
2009,04,18,05,44,2.70
2009,04,18,05,45,2.60
2009,04,18,05,46,2.60
2009,04,18,05,47,2.50
2009,04,18,05,48,2.50
2009,04,18,05,49,2.50
2009,04,18,05,50,2.40
2009,04,18,05,51,2.40
2009,04,18,05,52,2.50
2009,04,18,05,53,2.60
2009,04,18,05,54,2.70
2009,04,18,05,55,2.70
2009,04,18,05,56,2.70
2009,04,18,05,57,2.70
2009,04,18,05,58,2.70
2009,04,18,05,59,2.70
2009,04,18,06,00,2.60
2009,04,18,06,01,2.60
2009,04,18,06,02,2.50
2009,04,18,06,03,2.50
2009,04,18,06,04,2.40
2009,04,18,06,05,2.40
2009,04,18,06,06,2.30
2009,04,18,06,07,2.30
2009,04,18,06,08,2.20
2009,04,18,06,09,2.20
2009,04,18,06,10,2.20
2009,04,18,06,11,2.20
2009,04,18,06,12,2.20
2009,04,18,06,13,2.20
2009,04,18,06,14,2.10
2009,04,18,06,15,2.10
2009,04,18,06,16,2.10
2009,04,18,06,17,2.10
2009,04,18,06,18,2.00
2009,04,18,06,19,1.90
2009,04,18,06,20,1.80
2009,04,18,06,21,1.80
2009,04,18,06,22,1.80
2009,04,18,06,23,1.80
2009,04,18,06,24,1.80
2009,04,18,06,25,1.80
2009,04,18,06,26,1.80
2009,04,18,06,27,1.80
2009,04,18,06,28,1.80
2009,04,18,06,29,1.80
2009,04,18,06,30,1.90
2009,04,18,06,31,1.90
2009,04,18,06,32,1.90
2009,04,18,06,33,1.90
2009,04,18,06,34,1.90
2009,04,18,06,35,1.90
2009,04,18,06,36,1.80
2009,04,18,06,37,1.80
2009,04,18,06,38,1.80
2009,04,18,06,39,1.80
2009,04,18,06,40,1.80
2009,04,18,06,41,1.80
2009,04,18,06,42,1.80
2009,04,18,06,43,1.90
2009,04,18,06,44,2.00
2009,04,18,06,45,2.10
2009,04,18,06,46,2.20
2009,04,18,06,47,2.40
2009,04,18,06,48,2.50
2009,04,18,06,49,2.60
2009,04,18,06,50,2.70
2009,04,18,06,51,2.70
2009,04,18,06,52,2.70
2009,04,18,06,53,2.80
2009,04,18,06,54,2.80
2009,04,18,06,55,2.80
2009,04,18,06,56,2.80
2009,04,18,06,57,2.70
2009,04,18,06,58,2.70
2009,04,18,06,59,2.50
2009,04,18,07,00,2.50
2009,04,18,07,01,2.50
2009,04,18,07,02,2.50
2009,04,18,07,03,2.60
2009,04,18,07,04,2.60
2009,04,18,07,05,2.70
2009,04,18,07,06,2.80
2009,04,18,07,07,2.90
2009,04,18,07,08,3.00
2009,04,18,07,09,3.10
2009,04,18,07,10,3.20
2009,04,18,07,11,3.20
2009,04,18,07,12,3.20
2009,04,18,07,13,3.10
2009,04,18,07,14,3.10
2009,04,18,07,15,3.10
2009,04,18,07,16,3.10
2009,04,18,07,17,3.10
2009,04,18,07,18,3.10
2009,04,18,07,19,3.10
2009,04,18,07,20,3.10
2009,04,18,07,21,3.10
2009,04,18,07,22,3.10
2009,04,18,07,23,3.10
2009,04,18,07,24,3.10
2009,04,18,07,25,3.20
2009,04,18,07,26,3.20
2009,04,18,07,27,3.30
2009,04,18,07,28,3.30
2009,04,18,07,29,3.40
2009,04,18,07,30,3.50
2009,04,18,07,31,3.60
2009,04,18,07,32,3.70
2009,04,18,07,33,3.70
2009,04,18,07,34,3.70
2009,04,18,07,35,3.80
2009,04,18,07,36,3.80
2009,04,18,07,37,3.80
2009,04,18,07,38,3.80
2009,04,18,07,39,3.80
2009,04,18,07,40,3.80
2009,04,18,07,41,3.80
2009,04,18,07,42,3.80
2009,04,18,07,43,3.80
2009,04,18,07,44,3.80
2009,04,18,07,45,3.80
2009,04,18,07,46,3.80
2009,04,18,07,47,3.90
2009,04,18,07,48,4.00
2009,04,18,07,49,4.00
2009,04,18,07,50,4.10
2009,04,18,07,51,4.10
2009,04,18,07,52,4.00
2009,04,18,07,53,4.10
2009,04,18,07,54,4.10
2009,04,18,07,55,4.10
2009,04,18,07,56,4.10
2009,04,18,07,57,4.10
2009,04,18,07,58,4.10
2009,04,18,07,59,4.20
2009,04,18,08,00,4.20
2009,04,18,08,01,4.30
2009,04,18,08,02,4.40
2009,04,18,08,03,4.40
2009,04,18,08,04,4.50
2009,04,18,08,05,4.50
2009,04,18,08,06,4.60
2009,04,18,08,07,4.60
2009,04,18,08,08,4.70
2009,04,18,08,09,4.70
2009,04,18,08,10,4.80
2009,04,18,08,11,4.80
2009,04,18,08,12,4.90
2009,04,18,08,13,4.90
2009,04,18,08,14,4.90
2009,04,18,08,15,4.90
2009,04,18,08,16,4.90
2009,04,18,08,17,4.90
2009,04,18,08,18,4.90
2009,04,18,08,19,4.90
2009,04,18,08,20,4.90
2009,04,18,08,21,4.90
2009,04,18,08,22,5.00
2009,04,18,08,23,5.10
2009,04,18,08,24,5.10
2009,04,18,08,25,5.10
2009,04,18,08,26,5.10
2009,04,18,08,27,5.20
2009,04,18,08,28,5.30
2009,04,18,08,29,5.40
2009,04,18,08,30,5.50
2009,04,18,08,31,5.50
2009,04,18,08,32,5.60
2009,04,18,08,33,5.70
2009,04,18,08,34,5.70
2009,04,18,08,35,5.80
2009,04,18,08,36,5.80
2009,04,18,08,37,5.90
2009,04,18,08,38,6.00
2009,04,18,08,39,6.10
2009,04,18,08,40,6.20
2009,04,18,08,41,6.30
2009,04,18,08,42,6.40
2009,04,18,08,43,6.40
2009,04,18,08,44,6.50
2009,04,18,08,45,6.60
2009,04,18,08,46,6.60
2009,04,18,08,47,6.70
2009,04,18,08,48,6.70
2009,04,18,08,49,6.80
2009,04,18,08,50,6.80
2009,04,18,08,51,6.90
2009,04,18,08,52,7.00
2009,04,18,08,53,7.00
2009,04,18,08,54,7.20
2009,04,18,08,55,7.30
2009,04,18,08,56,7.30
2009,04,18,08,57,7.30
2009,04,18,08,58,7.40
2009,04,18,08,59,7.50
2009,04,18,09,00,7.60
2009,04,18,09,01,7.70
2009,04,18,09,02,7.80
2009,04,18,09,03,7.90
2009,04,18,09,04,7.90
2009,04,18,09,05,8.00
2009,04,18,09,06,8.10
2009,04,18,09,07,8.20
2009,04,18,09,08,8.40
2009,04,18,09,09,8.50
2009,04,18,09,10,8.60
2009,04,18,09,11,8.60
2009,04,18,09,12,8.70
2009,04,18,09,13,8.80
2009,04,18,09,14,8.80
2009,04,18,09,15,8.90
2009,04,18,09,16,8.90
2009,04,18,09,17,9.00
2009,04,18,09,18,9.00
2009,04,18,09,19,9.00
2009,04,18,09,20,9.00
2009,04,18,09,21,9.10
2009,04,18,09,22,9.00
2009,04,18,09,23,9.00
2009,04,18,09,24,9.00
2009,04,18,09,25,9.10
2009,04,18,09,26,9.10
2009,04,18,09,27,9.20
2009,04,18,09,28,9.20
2009,04,18,09,29,9.20
2009,04,18,09,30,9.30
2009,04,18,09,31,9.40
2009,04,18,09,32,9.40
2009,04,18,09,33,9.40
2009,04,18,09,34,9.40
2009,04,18,09,35,9.50
2009,04,18,09,36,9.50
2009,04,18,09,37,9.50
2009,04,18,09,38,9.50
2009,04,18,09,39,9.50
2009,04,18,09,40,9.50
2009,04,18,09,41,9.50
2009,04,18,09,42,9.50
2009,04,18,09,43,9.60
2009,04,18,09,44,9.60
2009,04,18,09,45,9.60
2009,04,18,09,46,9.60
2009,04,18,09,47,9.60
2009,04,18,09,48,9.70
2009,04,18,09,49,9.70
2009,04,18,09,50,9.80
2009,04,18,09,51,9.90
2009,04,18,09,52,10.00
2009,04,18,09,53,10.10
2009,04,18,09,54,10.20
2009,04,18,09,55,10.20
2009,04,18,09,56,10.20
2009,04,18,09,57,10.30
2009,04,18,09,58,10.30
2009,04,18,09,59,10.40
2009,04,18,10,00,10.40
2009,04,18,10,01,10.40
2009,04,18,10,02,10.40
2009,04,18,10,03,10.40
2009,04,18,10,04,10.40
2009,04,18,10,05,10.50
2009,04,18,10,06,10.60
2009,04,18,10,07,10.60
2009,04,18,10,08,10.60
2009,04,18,10,09,10.60
2009,04,18,10,10,10.60
2009,04,18,10,11,10.60
2009,04,18,10,12,10.70
2009,04,18,10,13,10.80
2009,04,18,10,14,10.80
2009,04,18,10,15,10.70
2009,04,18,10,16,10.70
2009,04,18,10,17,10.60
2009,04,18,10,18,10.60
2009,04,18,10,19,10.60
2009,04,18,10,20,10.60
2009,04,18,10,21,10.60
2009,04,18,10,22,10.70
2009,04,18,10,23,10.80
2009,04,18,10,24,10.80
2009,04,18,10,25,10.90
2009,04,18,10,26,10.90
2009,04,18,10,27,11.00
2009,04,18,10,28,11.10
2009,04,18,10,29,11.20
2009,04,18,10,30,11.20
2009,04,18,10,31,11.10
2009,04,18,10,32,11.00
2009,04,18,10,33,10.90
2009,04,18,10,34,10.90
2009,04,18,10,35,10.90
2009,04,18,10,36,10.90
2009,04,18,10,37,10.90
2009,04,18,10,38,10.90
2009,04,18,10,39,10.90
2009,04,18,10,40,10.90
2009,04,18,10,41,10.90
2009,04,18,10,42,10.90
2009,04,18,10,43,10.80
2009,04,18,10,44,10.80
2009,04,18,10,45,10.90
2009,04,18,10,46,10.90
2009,04,18,10,47,10.80
2009,04,18,10,48,10.80
2009,04,18,10,49,10.70
2009,04,18,10,50,10.80
2009,04,18,10,51,10.80
2009,04,18,10,52,10.70
2009,04,18,10,53,10.80
2009,04,18,10,54,10.90
2009,04,18,10,55,10.80
2009,04,18,10,56,10.80
2009,04,18,10,57,10.80
2009,04,18,10,58,10.80
2009,04,18,10,59,10.80
2009,04,18,11,00,10.80
2009,04,18,11,01,10.80
2009,04,18,11,02,10.80
2009,04,18,11,03,10.80
2009,04,18,11,04,11.00
2009,04,18,11,05,11.10
2009,04,18,11,06,11.20
2009,04,18,11,07,11.30
2009,04,18,11,08,11.30
2009,04,18,11,09,11.30
2009,04,18,11,10,11.40
2009,04,18,11,11,11.40
2009,04,18,11,12,11.40
2009,04,18,11,13,11.30
2009,04,18,11,14,11.20
2009,04,18,11,15,11.20
2009,04,18,11,16,11.20
2009,04,18,11,17,11.20
2009,04,18,11,18,11.20
2009,04,18,11,19,11.30
2009,04,18,11,20,11.30
2009,04,18,11,21,11.40
2009,04,18,11,22,11.40
2009,04,18,11,23,11.50
2009,04,18,11,24,11.50
2009,04,18,11,25,11.60
2009,04,18,11,26,11.60
2009,04,18,11,27,11.60
2009,04,18,11,28,11.50
2009,04,18,11,29,11.40
2009,04,18,11,30,11.40
2009,04,18,11,31,11.30
2009,04,18,11,32,11.30
2009,04,18,11,33,11.30
2009,04,18,11,34,11.30
2009,04,18,11,35,11.30
2009,04,18,11,36,11.40
2009,04,18,11,37,11.40
2009,04,18,11,38,11.40
2009,04,18,11,39,11.50
2009,04,18,11,40,11.60
2009,04,18,11,41,11.70
2009,04,18,11,42,11.60
2009,04,18,11,43,11.50
2009,04,18,11,44,11.40
2009,04,18,11,45,11.30
2009,04,18,11,46,11.40
2009,04,18,11,47,11.40
2009,04,18,11,48,11.60
2009,04,18,11,49,11.60
2009,04,18,11,50,11.60
2009,04,18,11,51,11.60
2009,04,18,11,52,11.60
2009,04,18,11,53,11.60
2009,04,18,11,54,11.70
2009,04,18,11,55,11.60
2009,04,18,11,56,11.60
2009,04,18,11,57,11.70
2009,04,18,11,58,11.80
2009,04,18,11,59,11.80
2009,04,18,12,00,11.80
2009,04,18,12,01,11.80
2009,04,18,12,02,11.90
2009,04,18,12,03,12.00
2009,04,18,12,04,12.10
2009,04,18,12,05,12.20
2009,04,18,12,06,11.90
2009,04,18,12,07,11.80
2009,04,18,12,08,11.80
2009,04,18,12,09,11.70
2009,04,18,12,10,11.70
2009,04,18,12,11,11.80
2009,04,18,12,12,11.80
2009,04,18,12,13,11.80
2009,04,18,12,14,11.90
2009,04,18,12,15,12.10
2009,04,18,12,16,12.20
2009,04,18,12,17,12.20
2009,04,18,12,18,12.00
2009,04,18,12,19,11.80
2009,04,18,12,20,11.60
2009,04,18,12,21,11.60
2009,04,18,12,22,11.70
2009,04,18,12,23,11.80
2009,04,18,12,24,11.80
2009,04,18,12,25,11.70
2009,04,18,12,26,11.80
2009,04,18,12,27,11.70
2009,04,18,12,28,11.60
2009,04,18,12,29,11.70
2009,04,18,12,30,11.60
2009,04,18,12,31,11.60
2009,04,18,12,32,11.50
2009,04,18,12,33,11.50
2009,04,18,12,34,11.50
2009,04,18,12,35,11.40
2009,04,18,12,36,11.40
2009,04,18,12,37,11.40
2009,04,18,12,38,11.40
2009,04,18,12,39,11.40
2009,04,18,12,40,11.40
2009,04,18,12,41,11.40
2009,04,18,12,42,11.40
2009,04,18,12,43,11.50
2009,04,18,12,44,11.60
2009,04,18,12,45,11.70
2009,04,18,12,46,11.80
2009,04,18,12,47,11.70
2009,04,18,12,48,11.70
2009,04,18,12,49,11.70
2009,04,18,12,50,11.80
2009,04,18,12,51,11.90
2009,04,18,12,52,11.90
2009,04,18,12,53,11.90
2009,04,18,12,54,12.00
2009,04,18,12,55,12.00
2009,04,18,12,56,12.10
2009,04,18,12,57,12.10
2009,04,18,12,58,12.10
2009,04,18,12,59,12.10
2009,04,18,13,00,12.10
2009,04,18,13,01,12.20
2009,04,18,13,02,12.30
2009,04,18,13,03,12.30
2009,04,18,13,04,12.30
2009,04,18,13,05,12.40
2009,04,18,13,06,12.40
2009,04,18,13,07,12.40
2009,04,18,13,08,12.50
2009,04,18,13,09,12.70
2009,04,18,13,10,12.80
2009,04,18,13,11,12.80
2009,04,18,13,12,12.80
2009,04,18,13,13,12.90
2009,04,18,13,14,12.90
2009,04,18,13,15,12.90
2009,04,18,13,16,13.00
2009,04,18,13,17,13.00
2009,04,18,13,18,12.90
2009,04,18,13,19,12.80
2009,04,18,13,20,12.80
2009,04,18,13,21,12.80
2009,04,18,13,22,12.90
2009,04,18,13,23,12.90
2009,04,18,13,24,13.00
2009,04,18,13,25,13.00
2009,04,18,13,26,13.00
2009,04,18,13,27,12.80
2009,04,18,13,28,12.80
2009,04,18,13,29,12.80
2009,04,18,13,30,12.90
2009,04,18,13,31,13.00
2009,04,18,13,32,13.00
2009,04,18,13,33,13.00
2009,04,18,13,34,13.00
2009,04,18,13,35,12.90
2009,04,18,13,36,12.90
2009,04,18,13,37,13.00
2009,04,18,13,38,13.20
2009,04,18,13,39,13.30
2009,04,18,13,40,13.30
2009,04,18,13,41,13.40
2009,04,18,13,42,13.50
2009,04,18,13,43,13.50
2009,04,18,13,44,13.50
2009,04,18,13,45,13.50
2009,04,18,13,46,13.60
2009,04,18,13,47,13.60
2009,04,18,13,48,13.60
2009,04,18,13,49,13.50
2009,04,18,13,50,13.50
2009,04,18,13,51,13.60
2009,04,18,13,52,13.60
2009,04,18,13,53,13.70
2009,04,18,13,54,13.70
2009,04,18,13,55,13.60
2009,04,18,13,56,13.40
2009,04,18,13,57,13.40
2009,04,18,13,58,13.60
2009,04,18,13,59,13.70
2009,04,18,14,00,13.90
2009,04,18,14,01,14.00
2009,04,18,14,02,13.90
2009,04,18,14,03,13.90
2009,04,18,14,04,13.70
2009,04,18,14,05,13.70
2009,04,18,14,06,13.70
2009,04,18,14,07,13.50
2009,04,18,14,08,13.40
2009,04,18,14,09,13.40
2009,04,18,14,10,13.40
2009,04,18,14,11,13.30
2009,04,18,14,12,13.30
2009,04,18,14,13,13.30
2009,04,18,14,14,13.40
2009,04,18,14,15,13.50
2009,04,18,14,16,13.60
2009,04,18,14,17,13.50
2009,04,18,14,18,13.50
2009,04,18,14,19,13.50
2009,04,18,14,20,13.40
2009,04,18,14,21,13.40
2009,04,18,14,22,13.30
2009,04,18,14,23,13.10
2009,04,18,14,24,13.00
2009,04,18,14,25,13.00
2009,04,18,14,26,13.10
2009,04,18,14,27,13.10
2009,04,18,14,28,13.10
2009,04,18,14,29,13.10
2009,04,18,14,30,13.00
2009,04,18,14,31,13.00
2009,04,18,14,32,13.10
2009,04,18,14,33,13.30
2009,04,18,14,34,13.40
2009,04,18,14,35,13.50
2009,04,18,14,36,13.30
2009,04,18,14,37,13.20
2009,04,18,14,38,13.20
2009,04,18,14,39,13.20
2009,04,18,14,40,13.30
2009,04,18,14,41,13.50
2009,04,18,14,42,13.60
2009,04,18,14,43,13.60
2009,04,18,14,44,13.50
2009,04,18,14,45,13.40
2009,04,18,14,46,13.30
2009,04,18,14,47,13.30
2009,04,18,14,48,13.10
2009,04,18,14,49,13.10
2009,04,18,14,50,13.00
2009,04,18,14,51,12.90
2009,04,18,14,52,12.80
2009,04,18,14,53,12.60
2009,04,18,14,54,12.30
2009,04,18,14,55,12.20
2009,04,18,14,56,12.20
2009,04,18,14,57,12.20
2009,04,18,14,58,12.20
2009,04,18,14,59,12.10
2009,04,18,15,00,12.00
2009,04,18,15,01,11.90
2009,04,18,15,02,11.80
2009,04,18,15,03,11.80
2009,04,18,15,04,11.80
2009,04,18,15,05,11.80
2009,04,18,15,06,11.80
2009,04,18,15,07,11.80
2009,04,18,15,08,11.80
2009,04,18,15,09,11.90
2009,04,18,15,10,11.90
2009,04,18,15,11,12.00
2009,04,18,15,12,12.00
2009,04,18,15,13,12.10
2009,04,18,15,14,12.10
2009,04,18,15,15,12.10
2009,04,18,15,16,12.10
2009,04,18,15,17,12.10
2009,04,18,15,18,12.00
2009,04,18,15,19,11.90
2009,04,18,15,20,11.80
2009,04,18,15,21,11.90
2009,04,18,15,22,12.00
2009,04,18,15,23,12.00
2009,04,18,15,24,12.00
2009,04,18,15,25,12.00
2009,04,18,15,26,12.00
2009,04,18,15,27,12.10
2009,04,18,15,28,12.10
2009,04,18,15,29,12.20
2009,04,18,15,30,12.10
2009,04,18,15,31,12.00
2009,04,18,15,32,12.10
2009,04,18,15,33,12.20
2009,04,18,15,34,12.30
2009,04,18,15,35,12.30
2009,04,18,15,36,12.40
2009,04,18,15,37,12.60
2009,04,18,15,38,12.70
2009,04,18,15,39,12.70
2009,04,18,15,40,12.60
2009,04,18,15,41,12.40
2009,04,18,15,42,12.30
2009,04,18,15,43,12.20
2009,04,18,15,44,12.10
2009,04,18,15,45,12.10
2009,04,18,15,46,12.00
2009,04,18,15,47,11.90
2009,04,18,15,48,11.90
2009,04,18,15,49,12.00
2009,04,18,15,50,12.00
2009,04,18,15,51,12.10
2009,04,18,15,52,12.20
2009,04,18,15,53,12.40
2009,04,18,15,54,12.50
2009,04,18,15,55,12.70
2009,04,18,15,56,12.80
2009,04,18,15,57,13.00
2009,04,18,15,58,13.00
2009,04,18,15,59,13.00
2009,04,18,16,00,12.90
2009,04,18,16,01,12.80
2009,04,18,16,02,12.80
2009,04,18,16,03,12.80
2009,04,18,16,04,12.80
2009,04,18,16,05,12.90
2009,04,18,16,06,12.90
2009,04,18,16,07,13.00
2009,04,18,16,08,13.00
2009,04,18,16,09,12.90
2009,04,18,16,10,12.90
2009,04,18,16,11,12.90
2009,04,18,16,12,12.90
2009,04,18,16,13,12.90
2009,04,18,16,14,12.90
2009,04,18,16,15,12.90
2009,04,18,16,16,12.80
2009,04,18,16,17,12.80
2009,04,18,16,18,12.90
2009,04,18,16,19,13.00
2009,04,18,16,20,13.00
2009,04,18,16,21,13.10
2009,04,18,16,22,13.20
2009,04,18,16,23,13.30
2009,04,18,16,24,13.20
2009,04,18,16,25,13.20
2009,04,18,16,26,13.20
2009,04,18,16,27,13.20
2009,04,18,16,28,13.00
2009,04,18,16,29,12.90
2009,04,18,16,30,12.80
2009,04,18,16,31,12.80
2009,04,18,16,32,12.80
2009,04,18,16,33,12.80
2009,04,18,16,34,12.70
2009,04,18,16,35,12.60
2009,04,18,16,36,12.50
2009,04,18,16,37,12.40
2009,04,18,16,38,12.30
2009,04,18,16,39,12.20
2009,04,18,16,40,12.10
2009,04,18,16,41,12.10
2009,04,18,16,42,12.10
2009,04,18,16,43,12.00
2009,04,18,16,44,11.90
2009,04,18,16,45,11.80
2009,04,18,16,46,11.80
2009,04,18,16,47,11.70
2009,04,18,16,48,11.70
2009,04,18,16,49,11.70
2009,04,18,16,50,11.80
2009,04,18,16,51,11.80
2009,04,18,16,52,11.80
2009,04,18,16,53,11.80
2009,04,18,16,54,11.80
2009,04,18,16,55,11.70
2009,04,18,16,56,11.60
2009,04,18,16,57,11.60
2009,04,18,16,58,11.60
2009,04,18,16,59,11.60
2009,04,18,17,00,11.50
2009,04,18,17,01,11.40
2009,04,18,17,02,11.40
2009,04,18,17,03,11.40
2009,04,18,17,04,11.40
2009,04,18,17,05,11.40
2009,04,18,17,06,11.40
2009,04,18,17,07,11.50
2009,04,18,17,08,11.60
2009,04,18,17,09,11.60
2009,04,18,17,10,11.60
2009,04,18,17,11,11.60
2009,04,18,17,12,11.60
2009,04,18,17,13,11.60
2009,04,18,17,14,11.60
2009,04,18,17,15,11.60
2009,04,18,17,16,11.60
2009,04,18,17,17,11.60
2009,04,18,17,18,11.60
2009,04,18,17,19,11.60
2009,04,18,17,20,11.60
2009,04,18,17,21,11.70
2009,04,18,17,22,11.70
2009,04,18,17,23,11.70
2009,04,18,17,24,11.80
2009,04,18,17,25,11.70
2009,04,18,17,26,11.70
2009,04,18,17,27,11.70
2009,04,18,17,28,11.80
2009,04,18,17,29,11.90
2009,04,18,17,30,11.90
2009,04,18,17,31,12.00
2009,04,18,17,32,12.00
2009,04,18,17,33,11.90
2009,04,18,17,34,11.90
2009,04,18,17,35,11.80
2009,04,18,17,36,11.80
2009,04,18,17,37,11.90
2009,04,18,17,38,11.90
2009,04,18,17,39,11.90
2009,04,18,17,40,11.90
2009,04,18,17,41,11.90
2009,04,18,17,42,11.90
2009,04,18,17,43,11.90
2009,04,18,17,44,11.80
2009,04,18,17,45,11.80